Location: Ammerl�gen
(47.2167°N, 9.6000°E)
Time: 20:13:29
(UTC+00:00)

Envisat - Pass Details

Date: 01 October 2021
Orbit: 764 x 766 km, 98.2° (Epoch: 27 October)

Event Time Altitude Azimuth Distance (km) Brightness Sun altitude
Rises 03:33:28 0° 25° (NNE) 3,242 6.9 -18.8°
Reaches altitude 10° 03:36:13 10° 39° (NE) 2,311 6.3 -18.4°
Maximum altitude 03:40:18 24° 92° (E) 1,553 5.4 -17.7°
Drops below altitude 10° 03:44:21 10° 146° (SE) 2,296 5.7 -17.0°
Sets 03:47:04 0° 160° (SSE) 3,216 6.3 -16.6°
